Location: ??????
(38.1303°N, 24.0039°E)
Time: 07:32:52
(UTC+00:00)

Cosmos 1271 Rocket - Pass Details

Date: 20 June 2021
Orbit: 497 x 544 km, 81.2° (Epoch: 23 July)

Event Time Altitude Azimuth Distance (km) Brightness Sun altitude
Rises 02:16:42 0° 332° (NNW) 2,594 6.4 -8.0°
Reaches altitude 10° 02:19:22 10° 312° (NW) 1,709 5.2 -7.6°
Maximum altitude 02:21:50 17° 270° (W) 1,325 4.3 -7.2°
Drops below altitude 10° 02:24:19 10° 228° (SW) 1,710 4.6 -6.8°
Enters shadow 02:24:49 - 223° (SW) 1,852 4.8 -6.7°
